Location: Bégole
(43.1574°N, 0.3291°E)
Time: 09:50:40
(UTC+00:00)

SL-4 R/B - Visible Passes

Search period start: 16 September 2024 00:00
Search period end: 26 September 2024 00:00
Orbit: 409 x 589 km, 51.6° (Epoch: 16 September)

Date Brightness Start Highest point End Pass type
(mag) Time Alt. Az. Time Alt. Az. Time Alt. Az.
18 Sep 4.3 05:04:37 10° S 05:07:20 20° SE 05:10:12 10° E visible
19 Sep 4.1 04:42:39 10° S 04:45:21 20° SE 04:48:11 10° E visible
20 Sep 4.0 04:20:40 10° S 04:23:21 20° SE 04:26:10 10° E visible
21 Sep 3.9 03:59:33 14° SSE 04:01:19 20° SE 04:04:06 10° E visible
22 Sep 3.7 03:38:49 19° SE 03:39:15 20° SE 03:42:01 10° E visible
22 Sep 1.9 05:13:49 10° WSW 05:17:27 65° NNW 05:21:20 10° NE visible
23 Sep 4.1 03:17:58 18° ESE 03:17:58 18° ESE 03:19:55 10° E visible
23 Sep 1.8 04:52:34 16° WSW 04:55:22 64° NNW 04:59:12 10° NE visible
24 Sep 4.7 02:57:01 14° E 02:57:01 14° E 02:57:47 10° E visible
24 Sep 1.8 04:31:37 29° WSW 04:33:15 63° NNW 04:37:04 10° NE visible
25 Sep 1.7 04:10:34 53° WNW 04:11:08 63° NNW 04:14:54 10° NE visible
